Вернуться в каталог

HULIANWANG DIGUI-182

АктивенНаукаLEO
NORAD 100207·PAYLOAD·🇨🇳 China

Запущен Aug 4, 2026 с Wenchang Space Launch Site

Loading…

Ближайшие Пролёты (ближайшие 24 часа)

TLE

СвежийSource: Space-Track

Эпоха: Sep 14, 2026, 08:54 UTC

1 A0207U 26176E   26257.37137232 -.00000092  00000-0  68844-4 0  9997
2 A0207  49.9873 245.9343 0000212   2.7201 357.3672 13.29327418  5488

Отслеживайте HULIANWANG DIGUI-182 в реальном времени с AllMySat

Download on the App Store